Regional Weather Roundup
Issued by NWS Sioux Falls, SD

Home | Current Version | Previous Version | Graphics & Text | Print | Product List | Glossary On
Versions: 1 2 3 4 5 6 7 8 9 10 11 12 13 14 15 16 17 18 19 20 21 22 23 24 25 26 27 28 29 30 31 32 33 34 35 36 37 38 39 40 41 42 43 44 45 46 47 48 49 50
000
ASUS43 KFSD 300202
RWRFSD

WEATHER ROUNDUP FOR SE SOUTH DAKOTA/SW MINNESOTA/NW IOWA
NATIONAL WEATHER SERVICE SIOUX FALLS SD
900 PM CDT FRI MAY 29 2015

NOTE: "FAIR" INDICATES FEW OR NO CLOUDS BELOW 12,000 FEET WITH NO
SIGNIFICANT WEATHER AND OR OBSTRUCTIONS TO VISIBILITY.


SDZ038>040-050-052>070-300300-
SOUTHEAST SOUTH DAKOTA

CITY           SKY/WX    TMP DP  RH WIND       PRES   REMARKS
BROOKINGS      CLOUDY    48  41  76 N14G21    30.15R
CHAMBERLAIN    CLOUDY    51  41  70 N8        30.22R
HURON          CLOUDY    52  42  69 N12       30.18R
MADISON        CLOUDY    46  46 100 N22G30    30.14R
MITCHELL       CLOUDY    52  45  77 N13       30.18R
SIOUX FALLS    CLOUDY    50  44  80 N20       30.12R
WINNER         MOCLDY    51  39  63 N12       30.23R
YANKTON        CLOUDY    52  45  76 NW20G29   30.12R
$$

MNZ071-072-080-081-089-090-097-098-300300-
SOUTHWEST MINNESOTA

CITY           SKY/WX    TMP DP  RH WIND       PRES   REMARKS
FAIRMONT       CLOUDY    55  50  82 NW23G29   29.99R
JACKSON        CLOUDY    52  50  93 NW23G30   30.03R FOG
LUVERNE        CLOUDY    50  45  81 N15G22    30.10R
MARSHALL       CLOUDY    48  41  76 N17G26    30.10R
MONTEVIDEO     CLOUDY    52  46  82 N13       30.11R
PIPESTONE      MOCLDY    46  43  87 N15G22    30.10R
REDWOOD FALLS  CLOUDY    54  50  86 N8        30.06R
TRACY          CLOUDY    50  47  92 NW18G24   30.09R
WINDOM         CLOUDY    52  48  87 NW23G29   30.04R
WORTHINGTON    CLOUDY    50  45  81 N18G31    30.06R
$$

IAZ001>003-012>014-020>022-031-032-NEZ013-014-SDZ071-300300-
NORTHWEST IOWA

CITY           SKY/WX    TMP DP  RH WIND       PRES   REMARKS
DENISON        CLOUDY    59  59 100 N15G23    29.97R
ESTHERVILLE    CLOUDY    53  52  96 N24       29.99R
SIOUX CITY     CLOUDY    55  50  83 N20G25    30.06R
SPENCER        CLOUDY    53  49  86 N24G33    30.02R
$$

ABBREVIATIONS USED IN REMARKS
   TC - TEMPERATURE IN CELSIUS
  WCI - WIND CHILL INDEX
   HX - HEAT INDEX
  VSB - VISIBILITY



USA.gov is the U.S. government's official web portal to all federal, state and local government web resources and services.